WZZ848 ENGM-EETN

Flight info

Callsign WZZ848
Flight time 1h 3m
Altitude 35000
Route MASEV Z183 LEGPO DCT PERAX DCT KOGAV DCT EBEBU DCT DOBAN
Aircraft A320/M-SDE3FGHIRWY/LB1

Departure

Time 2026-05-05 16:47
Airport Oslo-Gardermoen International Airport (ENGM)

Arrival

Time 2026-05-05 17:51
Airport Lennart Meri Tallinn Airport (EETN)
Time Latitude Longitude Altitude Speed Heading
2026-05-05 16:09 60.19540 11.09576 685 ft 0 kts 196°
2026-05-05 16:13 60.19541 11.09576 685 ft 0 kts 196°
2026-05-05 16:30 60.19550 11.09582 685 ft 4 kts 194°
2026-05-05 16:31 60.19576 11.09592 682 ft 4 kts 186°
2026-05-05 16:31 60.19603 11.09595 679 ft 4 kts 177°
2026-05-05 16:31 60.19630 11.09588 679 ft 4 kts 163°
2026-05-05 16:31 60.19653 11.09567 679 ft 4 kts 132°
2026-05-05 16:32 60.19660 11.09546 679 ft 1 kts 106°
2026-05-05 16:35 60.19658 11.09561 683 ft 3 kts 106°
2026-05-05 16:36 60.19650 11.09620 681 ft 6 kts 106°
2026-05-05 16:36 60.19653 11.09710 682 ft 7 kts 62°
2026-05-05 16:36 60.19700 11.09762 681 ft 9 kts 17°
2026-05-05 16:36 60.19767 11.09801 685 ft 11 kts 15°
2026-05-05 16:37 60.19852 11.09849 682 ft 15 kts 16°
2026-05-05 16:37 60.19939 11.09900 683 ft 11 kts 16°
2026-05-05 16:37 60.20014 11.09943 684 ft 13 kts 18°
2026-05-05 16:37 60.20036 11.10089 679 ft 13 kts 104°
2026-05-05 16:38 60.20011 11.10275 680 ft 15 kts 105°
2026-05-05 16:38 60.19977 11.10499 680 ft 18 kts 107°
2026-05-05 16:38 60.19941 11.10743 684 ft 17 kts 106°
2026-05-05 16:38 60.19906 11.10993 684 ft 20 kts 105°
2026-05-05 16:39 60.19864 11.11285 681 ft 23 kts 106°
2026-05-05 16:39 60.19821 11.11484 684 ft 13 kts 150°
2026-05-05 16:39 60.19726 11.11456 684 ft 16 kts 196°
2026-05-05 16:39 60.19612 11.11390 683 ft 19 kts 196°
2026-05-05 16:40 60.19477 11.11311 682 ft 22 kts 196°
2026-05-05 16:40 60.19330 11.11225 681 ft 23 kts 196°
2026-05-05 16:40 60.19171 11.11135 685 ft 25 kts 196°
2026-05-05 16:40 60.18998 11.11034 683 ft 27 kts 196°
2026-05-05 16:41 60.18844 11.10946 683 ft 19 kts 196°
2026-05-05 16:41 60.18711 11.10869 680 ft 21 kts 196°
2026-05-05 16:41 60.18559 11.10780 682 ft 24 kts 197°
2026-05-05 16:41 60.18395 11.10689 681 ft 26 kts 195°
2026-05-05 16:42 60.18258 11.10609 680 ft 17 kts 196°
2026-05-05 16:42 60.18137 11.10539 680 ft 19 kts 196°
2026-05-05 16:42 60.18000 11.10460 679 ft 22 kts 196°
2026-05-05 16:42 60.17843 11.10369 678 ft 25 kts 196°
2026-05-05 16:43 60.17706 11.10288 678 ft 12 kts 196°
2026-05-05 16:43 60.17641 11.10398 675 ft 16 kts 108°
2026-05-05 16:43 60.17625 11.10511 676 ft 2 kts 106°
2026-05-05 16:43 60.17625 11.10515 676 ft 0 kts 106°
2026-05-05 16:45 60.17623 11.10524 677 ft 3 kts 106°
2026-05-05 16:45 60.17613 11.10597 678 ft 9 kts 106°
2026-05-05 16:45 60.17600 11.10738 679 ft 10 kts 85°
2026-05-05 16:46 60.17652 11.10823 680 ft 10 kts 16°
2026-05-05 16:46 60.17662 11.10828 680 ft 0 kts 15°
2026-05-05 16:46 60.17662 11.10829 680 ft 1 kts 15°
2026-05-05 16:47 60.17775 11.10892 680 ft 51 kts 15°
2026-05-05 16:47 60.18351 11.11221 683 ft 118 kts 16°
2026-05-05 16:47 60.19309 11.11769 692 ft 165 kts 13°
2026-05-05 16:47 60.20387 11.12513 1397 ft 162 kts 21°
2026-05-05 16:48 60.21199 11.14169 2159 ft 177 kts 68°
2026-05-05 16:48 60.21424 11.16656 2790 ft 187 kts 77°
2026-05-05 16:48 60.21638 11.19356 3103 ft 210 kts 78°
2026-05-05 16:48 60.21896 11.22421 3433 ft 235 kts 78°
2026-05-05 16:49 60.22196 11.25835 3901 ft 260 kts 77°
2026-05-05 16:49 60.22526 11.29513 4685 ft 272 kts 77°
2026-05-05 16:49 60.22883 11.33279 5654 ft 276 kts 76°
2026-05-05 16:49 60.23297 11.37096 6615 ft 282 kts 79°
2026-05-05 16:50 60.23279 11.41086 7559 ft 288 kts 93°
2026-05-05 16:50 60.23099 11.45120 8498 ft 293 kts 94°
2026-05-05 16:50 60.22910 11.49245 9384 ft 298 kts 95°
2026-05-05 16:50 60.22782 11.52006 9957 ft 301 kts 94°
2026-05-05 16:51 60.22581 11.56340 10373 ft 323 kts 94°
2026-05-05 16:51 60.22367 11.60981 10839 ft 339 kts 94°
2026-05-05 16:51 60.22148 11.65745 11571 ft 345 kts 94°
2026-05-05 16:51 60.21925 11.70577 12350 ft 350 kts 93°
2026-05-05 16:52 60.21697 11.75468 13150 ft 354 kts 93°
2026-05-05 16:52 60.21463 11.80431 13882 ft 359 kts 93°
2026-05-05 16:52 60.21224 11.85473 14480 ft 366 kts 94°
2026-05-05 16:52 60.20976 11.90622 15060 ft 373 kts 94°
2026-05-05 16:53 60.20719 11.95867 15622 ft 380 kts 94°
2026-05-05 16:53 60.20457 12.01192 16193 ft 387 kts 95°
2026-05-05 16:53 60.20188 12.06628 16760 ft 394 kts 95°
2026-05-05 16:53 60.19915 12.12135 17434 ft 399 kts 96°
2026-05-05 16:54 60.19635 12.17724 18030 ft 405 kts 96°
2026-05-05 16:54 60.19346 12.23403 18546 ft 412 kts 96°
2026-05-05 16:54 60.19053 12.29185 19001 ft 419 kts 96°
2026-05-05 16:54 60.18750 12.35061 19465 ft 427 kts 97°
2026-05-05 16:55 60.18436 12.41049 19938 ft 434 kts 97°
2026-05-05 16:55 60.18115 12.47121 20396 ft 441 kts 97°
2026-05-05 16:55 60.17790 12.53286 20852 ft 448 kts 97°
2026-05-05 16:55 60.17439 12.59567 21297 ft 455 kts 98°
2026-05-05 16:56 60.17053 12.65910 21727 ft 461 kts 99°
2026-05-05 16:56 60.16640 12.72341 22150 ft 467 kts 99°
2026-05-05 16:56 60.16212 12.78849 22558 ft 474 kts 100°
2026-05-05 16:56 60.15775 12.85460 22989 ft 480 kts 100°
2026-05-05 16:57 60.15334 12.92147 23386 ft 486 kts 100°
2026-05-05 16:57 60.14886 12.98929 23778 ft 492 kts 101°
2026-05-05 16:57 60.14438 13.05743 24202 ft 495 kts 100°
2026-05-05 16:57 60.13985 13.12614 24660 ft 497 kts 100°
2026-05-05 16:58 60.13535 13.19421 25101 ft 500 kts 100°
2026-05-05 16:58 60.13072 13.26361 25553 ft 502 kts 100°
2026-05-05 16:58 60.12604 13.33316 25998 ft 505 kts 101°
2026-05-05 16:58 60.12129 13.40321 26423 ft 507 kts 101°
2026-05-05 16:59 60.11647 13.47359 26791 ft 510 kts 102°
2026-05-05 16:59 60.11156 13.54421 27221 ft 513 kts 102°
2026-05-05 16:59 60.10658 13.61529 27659 ft 515 kts 102°
2026-05-05 16:59 60.10155 13.68637 28092 ft 517 kts 102°
2026-05-05 17:00 60.09646 13.75785 28517 ft 519 kts 102°
2026-05-05 17:00 60.09133 13.82973 28947 ft 522 kts 102°
2026-05-05 17:00 60.08616 13.90166 29397 ft 524 kts 102°
2026-05-05 17:00 60.08090 13.97413 29837 ft 526 kts 102°
2026-05-05 17:01 60.07559 14.04678 30213 ft 528 kts 102°
2026-05-05 17:01 60.07021 14.11967 30599 ft 528 kts 103°
2026-05-05 17:01 60.06481 14.19244 31031 ft 529 kts 102°
2026-05-05 17:01 60.05935 14.26545 31427 ft 530 kts 102°
2026-05-05 17:02 60.05385 14.33831 31905 ft 529 kts 102°
2026-05-05 17:02 60.04863 14.41106 32453 ft 528 kts 99°
2026-05-05 17:02 60.04717 14.48430 32994 ft 528 kts 90°
2026-05-05 17:02 60.04877 14.55771 33552 ft 526 kts 89°
2026-05-05 17:03 60.05040 14.62962 34069 ft 524 kts 89°
2026-05-05 17:03 60.05201 14.70232 34523 ft 521 kts 89°
2026-05-05 17:03 60.05353 14.77473 34775 ft 521 kts 89°
2026-05-05 17:03 60.05497 14.84709 34859 ft 517 kts 89°
2026-05-05 17:04 60.05768 14.98963 34873 ft 510 kts 89°
2026-05-05 17:04 60.06024 15.13118 34870 ft 509 kts 89°
2026-05-05 17:05 60.06259 15.27291 34870 ft 509 kts 89°
2026-05-05 17:05 60.06480 15.41448 34868 ft 509 kts 90°
2026-05-05 17:06 60.06687 15.55595 34851 ft 508 kts 90°
2026-05-05 17:06 60.06881 15.69758 34858 ft 508 kts 90°
2026-05-05 17:07 60.07066 15.83897 34865 ft 508 kts 90°
2026-05-05 17:07 60.07236 15.98047 34864 ft 508 kts 90°
2026-05-05 17:08 60.07384 16.12181 34889 ft 508 kts 90°
2026-05-05 17:08 60.07515 16.26317 34864 ft 508 kts 90°
2026-05-05 17:09 60.07635 16.40489 34867 ft 508 kts 91°
2026-05-05 17:09 60.07754 16.54641 34860 ft 508 kts 90°
2026-05-05 17:10 60.07870 16.68793 34862 ft 508 kts 91°
2026-05-05 17:10 60.07963 16.82854 34864 ft 508 kts 91°
2026-05-05 17:11 60.08027 16.97021 34844 ft 508 kts 91°
2026-05-05 17:11 60.08076 17.11160 34860 ft 508 kts 92°
2026-05-05 17:12 60.08117 17.25317 34865 ft 508 kts 91°
2026-05-05 17:12 60.08295 17.39498 34874 ft 509 kts 90°
2026-05-05 17:13 60.08565 17.53643 34857 ft 508 kts 90°
2026-05-05 17:13 60.08805 17.67792 34869 ft 508 kts 90°
2026-05-05 17:14 60.08978 17.81943 34862 ft 508 kts 91°
2026-05-05 17:14 60.09124 17.96072 34863 ft 507 kts 91°
2026-05-05 17:15 60.09269 18.10214 34869 ft 507 kts 91°
2026-05-05 17:15 60.09402 18.24309 34806 ft 505 kts 91°
2026-05-05 17:16 60.09520 18.38333 34840 ft 504 kts 91°
2026-05-05 17:16 60.09622 18.52381 34858 ft 503 kts 91°
2026-05-05 17:17 60.09700 18.66317 34872 ft 503 kts 92°
2026-05-05 17:17 60.09773 18.80342 34875 ft 503 kts 92°
2026-05-05 17:18 60.09829 18.94368 34836 ft 503 kts 92°
2026-05-05 17:18 60.09878 19.08366 34854 ft 503 kts 92°
2026-05-05 17:19 60.09906 19.22381 34865 ft 502 kts 92°
2026-05-05 17:19 60.09915 19.36337 34870 ft 502 kts 93°
2026-05-05 17:20 60.09883 19.50321 34872 ft 501 kts 95°
2026-05-05 17:20 60.09415 19.64287 34870 ft 499 kts 99°
2026-05-05 17:21 60.08671 19.78044 34876 ft 499 kts 100°
2026-05-05 17:22 60.07668 19.98642 34875 ft 500 kts 98°
2026-05-05 17:22 60.07069 20.12514 34876 ft 500 kts 98°
2026-05-05 17:23 60.06444 20.26355 34872 ft 499 kts 99°
2026-05-05 17:23 60.05792 20.40095 34847 ft 499 kts 99°
2026-05-05 17:24 60.05120 20.53911 34857 ft 499 kts 99°
2026-05-05 17:24 60.04437 20.67710 34863 ft 498 kts 99°
2026-05-05 17:25 60.03737 20.81486 34868 ft 498 kts 100°
2026-05-05 17:25 60.03023 20.95255 34869 ft 498 kts 100°
2026-05-05 17:26 60.02293 21.09014 34848 ft 497 kts 101°
2026-05-05 17:26 60.00948 21.22480 34855 ft 493 kts 107°
2026-05-05 17:27 59.99448 21.35859 34860 ft 493 kts 108°
2026-05-05 17:27 59.97927 21.49218 34658 ft 491 kts 108°
2026-05-05 17:27 59.97171 21.55840 34423 ft 488 kts 108°
2026-05-05 17:28 59.96414 21.62445 34190 ft 487 kts 108°
2026-05-05 17:28 59.95662 21.69009 33922 ft 486 kts 109°
2026-05-05 17:28 59.94906 21.75576 33658 ft 485 kts 109°
2026-05-05 17:28 59.94147 21.82121 33381 ft 483 kts 109°
2026-05-05 17:29 59.93388 21.88642 33106 ft 482 kts 109°
2026-05-05 17:29 59.92638 21.95056 32846 ft 480 kts 109°
2026-05-05 17:29 59.91871 22.01591 32571 ft 478 kts 109°
2026-05-05 17:29 59.91112 22.08022 32307 ft 476 kts 109°
2026-05-05 17:30 59.90365 22.14332 31957 ft 472 kts 110°
2026-05-05 17:30 59.89610 22.20689 31416 ft 472 kts 110°
2026-05-05 17:30 59.88852 22.27041 30911 ft 470 kts 110°
2026-05-05 17:30 59.88095 22.33363 30391 ft 468 kts 110°
2026-05-05 17:31 59.87337 22.39655 29914 ft 466 kts 110°
2026-05-05 17:31 59.86577 22.45922 29384 ft 464 kts 110°
2026-05-05 17:31 59.86065 22.50123 29080 ft 462 kts 110°
2026-05-05 17:31 59.85066 22.58305 28446 ft 457 kts 110°
2026-05-05 17:32 59.84318 22.64427 28006 ft 454 kts 110°
2026-05-05 17:32 59.83569 22.70525 27547 ft 452 kts 110°
2026-05-05 17:32 59.82821 22.76575 27082 ft 450 kts 110°
2026-05-05 17:32 59.82069 22.82601 26615 ft 449 kts 111°
2026-05-05 17:33 59.81315 22.88605 26117 ft 448 kts 111°
2026-05-05 17:33 59.80560 22.94593 25589 ft 447 kts 110°
2026-05-05 17:33 59.79808 23.00558 25138 ft 444 kts 110°
2026-05-05 17:33 59.79055 23.06512 24630 ft 444 kts 110°
2026-05-05 17:34 59.78301 23.12450 24097 ft 444 kts 110°
2026-05-05 17:34 59.77543 23.18399 23700 ft 440 kts 110°
2026-05-05 17:34 59.76803 23.24217 23140 ft 441 kts 110°
2026-05-05 17:34 59.76061 23.30056 22772 ft 434 kts 110°
2026-05-05 17:35 59.75320 23.35852 22235 ft 432 kts 110°
2026-05-05 17:35 59.74579 23.41609 21740 ft 429 kts 111°
2026-05-05 17:35 59.73839 23.47310 21255 ft 426 kts 111°
2026-05-05 17:35 59.73098 23.52986 20768 ft 423 kts 111°
2026-05-05 17:36 59.72364 23.58586 20102 ft 416 kts 111°
2026-05-05 17:36 59.71643 23.64091 19434 ft 407 kts 111°
2026-05-05 17:36 59.70944 23.69429 18955 ft 394 kts 111°
2026-05-05 17:36 59.70260 23.74611 18494 ft 388 kts 111°
2026-05-05 17:37 59.69567 23.79787 18004 ft 389 kts 111°
2026-05-05 17:37 59.69103 23.83227 17659 ft 389 kts 111°
2026-05-05 17:37 59.68171 23.90134 17031 ft 387 kts 111°
2026-05-05 17:37 59.67478 23.95278 16555 ft 386 kts 111°
2026-05-05 17:38 59.66787 24.00403 16089 ft 385 kts 111°
2026-05-05 17:38 59.66322 24.03850 15776 ft 384 kts 111°
2026-05-05 17:38 59.65644 24.08876 15311 ft 383 kts 111°
2026-05-05 17:38 59.64958 24.13962 14857 ft 382 kts 111°
2026-05-05 17:39 59.64271 24.19033 14380 ft 380 kts 111°
2026-05-05 17:39 59.63597 24.23993 13804 ft 370 kts 111°
2026-05-05 17:39 59.62936 24.28842 13146 ft 362 kts 111°
2026-05-05 17:39 59.62284 24.33604 12480 ft 355 kts 111°
2026-05-05 17:40 59.61642 24.38271 11826 ft 349 kts 111°
2026-05-05 17:40 59.61008 24.42863 11208 ft 343 kts 110°
2026-05-05 17:40 59.60384 24.47363 10627 ft 336 kts 110°
2026-05-05 17:40 59.59771 24.51767 10049 ft 330 kts 110°
2026-05-05 17:41 59.59167 24.56100 9475 ft 325 kts 110°
2026-05-05 17:41 59.58571 24.60366 8835 ft 319 kts 109°
2026-05-05 17:41 59.57982 24.64560 8230 ft 314 kts 109°
2026-05-05 17:41 59.57400 24.68685 7626 ft 309 kts 108°
2026-05-05 17:42 59.56826 24.72733 7029 ft 304 kts 107°
2026-05-05 17:42 59.56260 24.76728 6460 ft 300 kts 107°
2026-05-05 17:42 59.55702 24.80653 5856 ft 295 kts 106°
2026-05-05 17:42 59.55152 24.84521 5244 ft 291 kts 107°
2026-05-05 17:43 59.54607 24.88341 4673 ft 287 kts 106°
2026-05-05 17:43 59.54073 24.92088 4164 ft 281 kts 106°
2026-05-05 17:43 59.53539 24.95831 3668 ft 287 kts 106°
2026-05-05 17:43 59.52994 24.99639 3168 ft 291 kts 106°
2026-05-05 17:44 59.52443 25.03499 2670 ft 294 kts 106°
2026-05-05 17:44 59.51897 25.07325 2492 ft 286 kts 106°
2026-05-05 17:44 59.51369 25.10992 2500 ft 271 kts 106°
2026-05-05 17:44 59.50876 25.14415 2499 ft 248 kts 106°
2026-05-05 17:45 59.50394 25.17654 2509 ft 246 kts 112°
2026-05-05 17:45 59.49442 25.20339 2504 ft 239 kts 146°
2026-05-05 17:45 59.47986 25.21620 2512 ft 231 kts 174°
2026-05-05 17:45 59.46404 25.22017 2504 ft 229 kts 179°
2026-05-05 17:46 59.44827 25.21975 2501 ft 224 kts 197°
2026-05-05 17:46 59.43404 25.20853 2508 ft 219 kts 216°
2026-05-05 17:46 59.42296 25.19004 2500 ft 199 kts 234°
2026-05-05 17:46 59.41595 25.16823 2507 ft 180 kts 250°
2026-05-05 17:47 59.41250 25.14523 2523 ft 174 kts 263°
2026-05-05 17:47 59.41204 25.12183 2512 ft 171 kts 271°
2026-05-05 17:47 59.41217 25.09858 2451 ft 169 kts 272°
2026-05-05 17:47 59.41229 25.07546 2277 ft 169 kts 271°
2026-05-05 17:48 59.41240 25.05241 2059 ft 169 kts 272°
2026-05-05 17:48 59.41251 25.02942 1831 ft 164 kts 271°
2026-05-05 17:48 59.41260 25.00823 1639 ft 143 kts 271°
2026-05-05 17:48 59.41268 24.98987 1427 ft 129 kts 272°
2026-05-05 17:49 59.41275 24.97272 1252 ft 123 kts 272°
2026-05-05 17:49 59.41282 24.95606 1080 ft 121 kts 272°
2026-05-05 17:49 59.41289 24.93964 908 ft 121 kts 271°
2026-05-05 17:49 59.41295 24.92317 741 ft 121 kts 271°
2026-05-05 17:50 59.41296 24.90678 611 ft 120 kts 271°
2026-05-05 17:50 59.41312 24.89037 465 ft 120 kts 271°
2026-05-05 17:50 59.41318 24.87406 305 ft 119 kts 271°
2026-05-05 17:50 59.41328 24.85785 198 ft 119 kts 271°
2026-05-05 17:51 59.41330 24.84257 140 ft 98 kts 269°
2026-05-05 17:51 59.41326 24.83566 142 ft 36 kts 270°
2026-05-05 17:51 59.41328 24.83092 139 ft 37 kts 270°
2026-05-05 17:51 59.41350 24.82740 138 ft 24 kts 289°
2026-05-05 17:52 59.41420 24.82460 139 ft 19 kts 301°
2026-05-05 17:52 59.41464 24.82316 139 ft 0 kts 301°
2026-05-05 17:54 59.41468 24.82301 139 ft 3 kts 301°
2026-05-05 17:54 59.41485 24.82246 139 ft 7 kts 300°
2026-05-05 17:54 59.41502 24.82140 139 ft 10 kts 271°
2026-05-05 17:54 59.41501 24.81980 139 ft 14 kts 270°
2026-05-05 17:55 59.41502 24.81835 139 ft 11 kts 271°
2026-05-05 17:55 59.41504 24.81660 139 ft 15 kts 271°
2026-05-05 17:55 59.41504 24.81436 139 ft 18 kts 270°
2026-05-05 17:55 59.41507 24.81246 139 ft 6 kts 284°
2026-05-05 17:56 59.41546 24.81183 139 ft 10 kts 351°
2026-05-05 17:56 59.41625 24.81174 139 ft 13 kts 345°
2026-05-05 17:56 59.41664 24.81008 139 ft 16 kts 271°
2026-05-05 17:56 59.41666 24.80799 139 ft 13 kts 269°
2026-05-05 17:57 59.41665 24.80600 138 ft 15 kts 270°
2026-05-05 17:57 59.41722 24.80455 138 ft 13 kts 314°
2026-05-05 17:57 59.41748 24.80300 138 ft 8 kts 281°
2026-05-05 17:57 59.41751 24.80215 138 ft 2 kts 266°
2026-05-05 17:58 59.41735 24.80196 138 ft 4 kts 200°
2026-05-05 17:58 59.41720 24.80193 138 ft 2 kts 183°
2026-05-05 17:58 59.41709 24.80194 138 ft 2 kts 178°
2026-05-05 17:58 59.41702 24.80195 138 ft 0 kts 177°
2026-05-05 17:59 59.41699 24.80195 138 ft 0 kts 178°